Theta_e
326 317 308 309 299 298 293 296 301 303 304 309 312 316 315 315 311 304 330 335 337 338 341 343 345 346 347 347 348 348 348 349 348 348 346 344 342 340 339 339 340 338 338 338 339 340 340 340 339
321 316 310 302 294 289 292 298 301 304 308 312 315 315 315 311 321 327 327 335 338 337 338 341 342 344 345 346 348 348 348 348 347 347 346 344 341 339 338 338 338 337 338 338 340 340 340 338 338
313 312 305 299 292 290 293 300 303 306 308 308 311 318 316 315 325 327 332 335 335 333 337 338 342 344 344 346 347 348 347 348 347 345 345 343 341 339 339 337 338 337 338 338 339 339 338 336 338
310 309 305 296 292 294 298 303 306 306 305 313 314 312 319 323 324 331 332 333 331 334 336 340 341 342 342 343 345 346 345 345 346 345 343 343 344 343 340 337 337 336 336 337 337 337 336 335 336
310 304 298 295 294 296 302 306 307 305 304 307 312 308 313 323 330 331 330 331 330 332 335 337 340 341 341 342 343 344 344 342 342 343 343 343 343 343 340 337 336 336 335 334 334 334 333 334 335
307 303 295 293 295 298 303 306 306 303 307 313 314 313 313 324 329 329 330 328 332 332 335 336 334 337 339 340 339 338 341 340 341 341 341 343 343 342 339 337 336 335 335 333 332 332 332 333 333
303 300 296 296 297 296 303 307 305 305 305 309 318 311 318 321 326 330 329 329 329 332 333 332 333 333 333 335 336 338 339 339 339 340 340 340 339 341 340 338 336 335 334 333 332 331 331 332 332
308 303 300 296 294 296 301 304 305 305 305 315 320 311 316 322 324 329 328 328 328 328 330 330 330 331 330 330 330 332 335 335 334 333 331 330 331 333 334 333 336 335 334 333 331 331 330 330 330
313 300 301 300 298 297 303 302 303 307 309 311 314 318 321 325 324 327 325 325 325 327 327 328 329 329 328 327 326 328 329 329 328 327 325 323 324 327 329 329 333 333 333 332 331 329 328 327 325
308 300 302 308 308 298 301 302 304 305 306 308 315 320 325 324 321 323 322 322 322 322 323 327 325 327 328 330 326 326 326 324 324 323 323 323 323 325 325 324 327 330 329 331 330 329 327 323 319
309 304 310 311 312 310 300 301 302 305 301 307 314 318 321 321 319 320 324 324 323 323 325 326 325 327 327 327 325 325 323 322 322 322 323 323 322 320 321 320 320 319 318 317 319 319 318 318 317
304 311 314 314 316 306 300 301 300 303 304 308 320 321 321 320 319 319 319 323 322 323 324 326 326 327 327 328 326 325 323 322 320 321 323 321 320 320 319 319 320 318 318 317 317 315 316 317 317
305 308 315 316 314 306 302 299 300 300 301 311 322 321 321 321 320 320 321 323 323 324 325 326 326 326 326 326 326 325 324 324 323 323 323 320 319 318 319 319 319 319 318 317 314 314 315 314 315
307 308 312 314 305 303 299 299 297 299 305 317 321 320 320 321 322 320 320 320 322 325 325 326 326 327 326 324 326 325 325 324 324 324 324 322 320 319 318 317 317 318 317 317 315 313 314 314 314
308 303 305 302 302 300 301 297 297 300 304 314 318 319 320 321 322 322 323 322 323 325 326 327 326 328 327 326 326 325 326 325 323 325 324 325 325 322 320 317 316 315 314 314 313 314 315 314 314
302 302 297 301 302 302 300 297 306 301 300 308 311 314 318 320 322 324 325 324 324 325 324 327 327 328 328 327 327 327 326 325 324 322 324 324 326 324 320 318 317 316 315 314 317 316 314 314 314
298 294 296 299 301 300 300 299 306 308 299 299 304 310 316 318 321 323 325 325 324 325 324 324 325 325 329 328 328 327 326 326 325 324 324 323 325 326 322 320 319 318 316 317 317 316 316 315 315
292 294 295 296 298 296 295 296 301 302 300 299 297 301 310 315 318 323 325 326 325 324 323 323 324 324 328 328 327 325 325 327 325 325 325 325 325 326 324 322 321 320 317 317 316 316 316 319 318
298 296 294 297 302 295 295 296 298 302 299 300 298 297 299 309 318 321 324 325 325 322 322 322 322 323 324 324 324 324 323 323 324 325 326 326 326 325 325 323 322 321 319 318 317 317 315 315 315
299 297 296 297 299 296 295 295 297 299 302 300 301 298 299 300 306 315 319 322 324 322 323 322 322 323 323 325 325 325 324 323 325 326 325 325 325 326 325 324 322 320 318 317 319 315 312 312 313
297 296 297 297 294 296 292 292 292 297 300 301 302 304 302 301 301 307 314 318 322 322 322 323 322 323 323 324 323 319 320 318 320 321 323 324 324 325 326 324 324 321 321 319 317 316 313 311 311
294 302 301 299 293 290 294 285 289 293 296 299 302 303 304 303 302 304 312 315 319 321 323 324 323 322 322 323 323 322 322 320 322 324 324 324 324 324 326 326 324 324 322 320 319 317 316 313 314
298 303 300 298 295 292 291 287 289 291 292 294 299 302 302 303 303 302 308 315 318 321 321 323 324 323 322 322 323 322 321 322 320 321 321 322 323 324 325 325 325 324 323 322 320 315 315 315 317
303 298 297 295 292 287 291 290 287 290 292 294 294 299 302 299 300 300 301 311 316 317 319 321 322 323 323 322 322 321 321 321 319 319 321 322 323 324 324 325 325 325 324 322 321 319 317 317 318
301 296 285 284 283 284 286 288 293 293 293 293 294 295 298 298 297 297 297 299 309 313 316 318 320 321 323 323 323 322 322 322 321 321 322 322 323 323 324 323 324 325 325 324 323 320 319 317 318
297 297 285 282 281 280 282 283 287 296 301 295 295 295 294 295 297 298 299 297 301 309 315 318 319 321 322 324 325 324 324 323 323 323 324 324 324 325 326 324 325 325 325 324 323 322 320 320 318
296 293 292 281 272 277 281 284 290 292 292 293 294 292 292 292 294 294 293 297 296 302 310 316 318 320 320 323 325 325 325 325 324 324 324 325 325 325 324 325 324 324 324 324 323 322 322 319 318
297 299 286 283 274 273 279 279 284 288 291 292 292 292 293 292 292 293 294 293 295 296 302 309 312 315 314 317 320 323 324 326 326 325 324 324 325 323 323 325 325 325 325 324 323 323 322 319 317
292 292 289 286 282 277 274 280 288 290 293 293 292 292 292 292 292 292 294 294 295 296 296 297 301 304 306 308 310 311 315 317 320 324 324 323 323 324 325 325 326 326 324 323 322 321 317 315 314
294 294 289 287 280 280 280 280 288 291 293 294 291 291 292 293 292 292 293 295 295 296 297 297 298 297 298 300 300 302 306 310 313 316 317 318 322 320 323 321 321 320 318 318 318 315 311 312 307
Wind_Speed
9 9 2 5 5 5 1 1 2 3 4 4 3 10 9 3 2 3 2 9 11 9 6 9 11 11 12 12 11 12 15 16 17 18 19 19 18 19 19 19 17 17 18 18 17 18 17 18 18
7 5 5 3 5 3 4 0 4 3 7 8 8 5 6 3 4 9 5 7 11 9 6 7 11 12 11 12 12 13 14 15 17 17 18 18 18 18 19 18 16 17 17 17 17 17 16 16 15
5 2 4 4 3 2 4 4 6 2 4 3 5 6 4 3 5 7 10 10 9 7 6 8 11 13 11 10 14 16 14 15 16 16 15 17 18 19 19 17 16 16 16 17 16 15 16 16 15
5 5 4 4 3 3 7 8 5 7 3 7 6 7 3 2 6 8 12 12 9 6 5 7 12 13 11 8 12 17 18 15 15 15 16 15 15 19 19 17 16 16 16 16 15 14 14 15 16
4 3 3 1 3 2 3 5 7 6 5 3 2 3 2 2 12 16 13 11 12 6 5 6 11 12 11 9 10 12 16 15 13 13 13 12 14 18 19 17 15 15 15 14 14 13 12 15 16
4 3 3 0 3 2 3 5 6 3 4 5 7 6 1 7 17 12 11 9 9 9 6 6 9 10 11 10 10 12 13 12 12 12 11 13 14 17 18 17 15 14 14 13 13 12 12 14 16
2 3 3 3 4 2 5 6 7 7 7 3 11 5 2 4 9 12 10 10 7 6 7 6 6 8 9 10 10 11 11 10 9 9 10 12 12 14 16 14 13 13 12 12 12 11 10 10 12
1 3 1 1 2 3 1 4 3 5 3 5 5 7 7 8 11 12 12 10 8 6 5 6 7 7 7 6 9 9 10 9 9 8 9 9 11 11 12 11 11 11 11 10 9 8 8 9 9
1 2 3 3 3 6 3 4 1 2 7 3 2 7 9 10 12 12 10 6 6 5 5 3 5 7 7 7 6 8 9 9 8 8 9 7 5 5 6 7 9 9 9 8 7 6 5 5 6
0 3 5 6 5 2 5 0 6 4 4 3 2 4 17 15 15 16 13 11 9 9 5 5 3 5 6 6 6 6 5 4 4 4 5 4 5 4 5 5 7 7 6 5 5 4 1 3 2
4 4 3 3 4 1 4 1 1 9 2 7 9 13 16 11 13 13 12 13 12 11 9 8 8 6 5 5 4 3 3 4 4 6 4 3 4 3 3 3 2 2 2 1 2 1 1 2 2
5 6 4 1 2 0 3 5 2 4 5 6 13 21 17 15 15 15 14 14 13 13 13 12 11 10 8 6 5 4 4 3 3 4 5 4 3 4 3 3 4 3 3 2 2 1 2 2 2
8 3 4 10 6 4 2 5 5 6 2 7 12 15 18 15 13 9 11 12 11 13 13 13 11 10 8 8 6 5 5 5 4 4 5 4 4 4 4 3 3 3 2 3 3 2 2 1 1
6 5 7 7 5 3 5 4 2 4 7 9 14 15 15 18 18 8 8 12 13 14 14 13 13 12 10 8 8 7 6 6 5 5 6 7 5 4 4 4 4 4 4 4 4 4 3 3 2
2 7 12 6 5 4 3 6 7 5 6 13 13 13 13 13 10 18 19 17 16 13 14 15 14 13 13 11 10 7 5 6 6 6 7 8 7 7 7 5 4 4 4 5 3 3 2 2 2
9 1 11 5 6 4 8 8 10 9 10 11 10 9 11 13 18 14 11 14 14 13 13 13 11 13 14 11 9 6 6 5 5 4 4 6 7 7 5 4 5 5 4 4 3 3 2 3 3
7 8 15 5 8 4 7 6 7 7 9 10 10 11 13 12 12 14 15 13 13 15 14 14 12 12 13 11 8 7 7 5 4 5 5 7 6 6 5 4 4 5 4 3 3 3 3 3 3
12 17 8 11 6 6 7 13 7 5 8 12 10 11 13 14 20 18 18 15 10 12 12 13 12 11 11 7 6 4 4 6 4 5 6 7 6 7 7 5 5 5 4 4 3 4 4 3 4
11 10 8 6 7 8 12 13 13 10 5 9 8 9 12 15 19 15 16 16 14 11 13 15 13 14 10 7 7 6 7 6 5 7 10 8 8 8 8 5 5 5 6 7 6 4 5 4 1
15 14 11 3 6 8 7 16 9 8 13 8 10 10 14 8 11 12 13 14 17 18 18 16 17 15 13 10 8 6 6 5 6 6 7 9 10 9 8 7 6 6 4 6 5 5 3 3 4
12 19 14 10 5 3 1 10 6 9 14 10 10 13 12 15 12 12 13 16 16 16 18 18 17 16 14 13 5 3 3 2 3 5 6 7 7 8 9 8 8 8 7 7 7 7 7 5 3
22 15 14 10 8 4 3 7 5 8 16 12 19 14 17 15 9 9 15 15 15 17 16 16 17 16 15 14 11 14 11 10 9 8 6 7 9 10 10 11 11 11 8 8 8 7 7 4 4
15 11 6 7 6 6 6 4 7 4 8 10 16 18 14 13 12 12 11 14 14 15 15 16 14 15 15 15 15 11 13 9 4 5 7 9 8 12 13 13 12 11 8 10 9 6 8 7 6
8 10 6 4 3 6 11 12 6 6 9 7 7 12 15 10 12 9 9 9 10 8 8 10 13 14 14 15 16 15 16 13 7 7 9 8 8 9 12 12 12 12 11 11 10 10 10 10 9
14 15 3 3 4 8 6 9 14 8 9 8 10 10 10 9 9 9 9 8 8 9 10 9 12 13 15 16 16 18 17 14 14 13 10 9 8 8 12 13 13 10 11 11 10 10 11 10 10
27 21 9 14 9 5 6 12 9 17 19 8 6 5 5 7 7 9 10 9 10 11 11 13 13 15 14 16 18 15 15 11 11 12 10 10 10 10 9 11 12 12 11 11 10 9 9 10 9
20 21 7 9 2 4 6 7 11 9 10 10 10 7 7 6 6 7 6 5 8 8 9 12 12 13 10 15 13 13 13 13 13 13 9 9 9 7 7 9 11 12 11 12 12 10 12 11 12
18 17 8 2 7 6 5 7 10 11 13 10 10 10 8 6 6 5 5 3 1 4 5 7 7 8 6 8 8 10 11 12 12 9 12 11 10 8 8 10 12 13 14 14 14 12 11 10 8
6 15 5 7 6 7 3 10 10 14 18 17 10 10 10 9 6 5 4 3 3 4 4 5 5 5 5 4 4 4 5 5 5 8 8 10 8 10 11 12 12 13 12 11 12 12 7 9 8
6 17 6 11 7 3 2 9 0 10 11 12 9 9 7 6 7 5 4 3 2 1 1 3 3 4 5 5 5 6 5 4 5 6 5 6 10 8 10 7 6 6 6 7 9 8 6 8 8
Wind_Direction
322 319 75 44 48 59 290 302 156 106 63 335 48 98 123 84 57 180 28 132 123 115 114 114 112 111 108 110 108 113 115 113 109 108 106 101 99 96 93 92 88 88 88 87 90 90 79 71 71
310 334 39 80 81 56 264 255 136 158 143 129 95 91 48 83 83 120 99 144 121 119 113 118 120 116 112 116 118 118 115 114 111 111 113 110 108 102 99 90 90 90 91 94 97 91 79 67 70
306 36 68 85 113 176 179 182 151 129 149 96 94 58 102 109 124 145 131 138 113 112 117 129 121 116 119 114 110 117 115 117 113 113 116 116 112 109 98 94 92 91 91 94 95 90 77 67 77
353 10 27 82 253 238 172 188 159 134 75 65 113 73 51 202 137 133 131 126 115 114 127 132 120 114 110 104 117 109 106 99 105 110 112 116 117 111 106 102 97 95 93 93 96 91 81 76 81
12 54 51 19 289 349 80 184 164 129 110 90 120 133 46 29 122 125 134 135 125 121 117 127 117 116 114 117 113 110 109 111 112 112 112 113 113 114 111 107 101 97 94 95 96 95 88 79 83
1 87 73 229 278 84 167 193 133 114 110 159 83 99 244 127 130 138 132 124 131 132 126 127 115 112 113 104 120 130 109 125 124 119 111 109 103 115 116 116 113 109 105 101 98 92 80 72 75
92 79 199 167 253 195 196 160 146 144 133 164 139 93 144 164 146 135 130 127 128 125 125 125 121 116 105 110 109 109 117 121 121 118 107 104 103 117 118 113 114 111 106 100 94 89 84 80 81
83 100 218 45 356 256 166 115 110 118 84 102 135 154 181 183 148 133 130 134 129 136 142 142 132 127 122 120 111 109 108 106 104 90 86 94 96 96 106 106 113 114 108 104 98 89 75 60 52
202 65 189 165 59 280 309 120 38 53 111 68 8 156 168 146 136 131 128 129 133 147 154 151 145 140 136 130 130 122 127 126 121 117 106 83 88 89 85 109 115 118 118 121 115 97 82 63 20
292 149 237 181 157 243 289 138 151 104 115 44 34 46 142 144 153 152 159 160 164 160 175 165 159 152 144 140 143 140 140 142 143 139 131 124 114 117 109 111 119 124 127 126 121 117 32 29 9
281 212 284 234 165 132 287 164 125 128 203 199 175 149 155 158 162 161 171 169 171 172 169 178 170 168 157 144 149 152 157 155 160 158 152 153 124 140 131 131 124 121 99 52 44 63 94 119 113
281 268 272 231 174 26 312 315 153 192 217 195 168 163 160 171 177 171 172 177 175 173 180 178 178 176 174 162 168 167 159 178 174 180 181 157 160 163 162 165 174 172 183 202 205 195 175 159 146
271 284 263 270 219 230 324 271 233 233 137 107 140 161 174 176 181 188 182 181 170 180 184 181 174 177 177 171 171 175 183 177 193 183 174 157 171 178 166 187 187 200 195 187 190 196 191 211 243
208 259 249 262 270 271 177 255 163 265 128 130 156 180 184 184 185 171 182 190 183 179 185 179 179 180 174 180 181 182 189 195 186 183 185 179 172 177 188 190 204 207 199 195 191 193 191 207 211
107 319 274 226 235 245 96 280 230 208 160 164 185 189 193 203 196 199 192 193 195 193 180 186 179 178 179 187 185 180 179 186 191 192 191 186 182 188 183 190 195 206 196 193 190 200 201 204 219
138 119 265 241 173 249 145 258 236 215 156 195 197 195 195 203 212 212 208 205 196 195 186 183 186 187 186 186 188 188 185 178 190 193 192 197 197 191 186 187 197 196 193 184 181 182 215 242 241
151 209 223 240 199 154 178 263 243 201 186 196 203 201 204 208 219 210 215 208 194 194 190 187 187 187 194 188 186 189 194 191 189 186 193 197 198 197 186 187 206 185 187 189 186 216 193 218 235
164 199 213 204 210 206 205 243 277 289 184 218 205 211 208 206 216 210 209 206 202 195 194 192 193 185 190 183 179 187 195 209 177 195 201 196 197 193 189 190 198 186 176 194 173 207 220 217 220
164 178 181 207 199 175 223 242 232 255 247 245 233 220 219 215 221 205 207 201 195 186 191 198 192 193 178 182 185 192 202 204 207 204 205 197 204 200 194 193 193 183 196 197 186 189 209 255 137
183 174 212 245 212 179 229 246 237 243 256 219 226 229 223 224 224 210 202 199 199 195 193 194 198 193 191 189 196 197 188 208 212 216 213 204 205 205 203 197 202 188 187 193 191 181 192 230 170
200 188 186 199 161 183 118 273 224 236 246 237 234 228 222 215 217 211 201 200 203 199 197 196 194 192 194 195 151 84 107 108 172 208 216 218 212 210 206 200 198 199 198 203 199 197 189 212 205
215 203 197 185 159 199 177 277 256 226 240 232 233 225 226 219 205 210 205 202 198 209 201 196 192 191 191 182 183 193 202 212 216 217 215 207 201 206 207 207 204 206 205 206 207 200 208 166 200
213 143 157 180 179 132 176 264 268 212 258 236 234 232 228 219 207 205 204 205 202 204 197 198 191 192 188 188 193 195 210 217 195 200 197 202 199 209 210 209 210 212 208 215 207 192 203 205 212
146 110 69 91 66 252 172 199 254 209 210 242 232 234 230 210 218 214 205 197 203 193 196 190 185 193 186 188 196 197 207 209 197 202 207 205 209 212 216 210 212 215 212 213 210 210 205 208 216
171 162 185 142 188 231 169 191 235 238 244 227 247 240 233 204 206 222 201 206 205 191 187 186 189 194 190 192 197 203 209 204 211 212 211 205 207 213 217 208 214 218 217 217 212 209 215 214 218
187 185 170 193 190 201 123 224 246 217 244 218 242 210 176 172 206 217 227 205 204 198 194 192 193 202 193 196 205 206 208 209 216 216 213 219 218 220 212 211 219 222 220 219 215 217 220 219 221
192 208 174 98 37 84 213 279 306 232 247 218 217 191 203 199 204 220 236 211 204 208 201 195 197 210 195 204 208 207 207 210 216 219 212 219 221 222 209 203 210 220 220 220 218 222 225 215 216
185 174 175 15 144 216 248 280 232 204 200 205 204 202 212 208 169 201 215 206 149 187 194 186 194 206 200 200 205 211 211 212 216 211 215 213 215 202 203 210 214 219 219 214 214 222 229 222 226
152 186 200 124 164 165 173 250 208 203 195 195 192 190 187 186 182 189 172 157 130 103 123 167 183 192 193 193 191 207 218 215 218 224 217 212 207 208 217 220 223 227 225 219 219 225 210 217 224
180 180 185 195 213 215 205 272 227 250 167 155 181 182 179 173 181 186 188 166 150 172 156 168 166 176 192 197 195 213 219 217 222 225 220 206 216 217 218 212 229 231 231 229 221 223 209 206 196